Regional Weather Roundup
Issued by NWS

Home | Current Version | Previous Version | Text Only | Print | Product List | Glossary On
Versions: 1 2 3 4 5 6 7 8 9 10 11 12 13 14 15 16 17 18 19 20 21 22 23 24 25 26 27 28 29 30 31 32 33 34 35 36 37 38 39 40 41 42 43 44 45 46 47 48 49 50
000
ASUS45 KREV 162010
RWRNV
NEVADA REGIONAL WEATHER ROUNDUP
NATIONAL WEATHER SERVICE RENO NV
100 PM PDT WED AUG 16 2017

NOTE: "FAIR" INDICATES FEW OR NO CLOUDS BELOW 12,000 FEET WITH NO
SIGNIFICANT WEATHER AND/OR OBSTRUCTIONS TO VISIBILITY.

NVZ001-003-004-162100-
WESTERN NEVADA

CITY           SKY/WX    TMP DP  RH WIND       PRES   REMARKS
RENO           MOSUNNY   86  41  20 N6        30.07F
CARSON CITY    FAIR      86  39  19 E6G16     30.08F
MINDEN         FAIR      82  45  26 N12       30.08F
FALLON         PTSUNNY   83  34  17 VRB3      30.04F
LOVELOCK       MOSUNNY   89  40  17 MISG      30.02F
HAWTHORNE      SUNNY     88  37  16 CALM      30.03F
$$

NVZ002-CAZ072-073-162100-
NORTHERN AND CENTRAL SIERRA

CITY           SKY/WX    TMP DP  RH WIND       PRES   REMARKS
S. LAKE TAHOE  SUNNY     76  48  37 CALM      30.17F
TRUCKEE        MOSUNNY   77  46  33 CALM      30.17
SQUAW VLY 8000 NOT AVBL
SUSANVILLE     LGT RAIN  84  36  17 SE3       30.08F
MAMMOTH LAKES  FAIR      79  32  18 E13G18    30.22F
BRIDGEPORT     FAIR      80  34  19 CALM      30.17F
$$

NVZ030-031-036-162100-
NORTHERN NEVADA

CITY           SKY/WX    TMP DP  RH WIND       PRES   REMARKS
ELKO           MOSUNNY   81  34  18 SW10      30.10F
WINNEMUCCA     SUNNY     86  37  17 E5        30.05F
WENDOVER       PTSUNNY   81  32  17 E9        30.06F
$$

NVZ035-037-162100-
CENTRAL NEVADA

CITY           SKY/WX    TMP DP  RH WIND       PRES   REMARKS
ELY            PTSUNNY   78  38  23 S9        30.19F
$$

NVZ013-014-162100-
SOUTH CENTRAL NEVADA

CITY           SKY/WX    TMP DP  RH WIND       PRES   REMARKS
TONOPAH        MOSUNNY   82  39  21 VRB3      30.12F
$$

NVZ017-020-022-162100-
SOUTHERN NEVADA

CITY           SKY/WX    TMP DP  RH WIND       PRES   REMARKS
LAS VEGAS      MOSUNNY   94  39  14 SE10      29.92F
N. LAS VEGAS   SUNNY     93  34  12 MISG      29.92F
NELLIS AFB     SUNNY     95  40  14 N3        29.90F
HENDERSON      SUNNY     93  40  15 S9        29.95F
MERCURY        SUNNY     92  35  13 VRB7      29.96F
$$



USA.gov is the U.S. government's official web portal to all federal, state and local government web resources and services.